Flag for Norway Weather past 2 weeks in Vestby, Norway

Now
55 °F

Sunny.


Feels Like: 52 °F
Forecast: 40 / 61 °F
Wind: 13 mph from Southwest

Location: Rygge

Current Time: May 26, 2015 at 7:09:07 PM

Latest Report: May 26, 2015 at 6:20 PM


Visibility: 10 mi

Pressure: 29.80 "Hg

Humidity: 59%

Dew point: 41 °F

Location of VestbyLocation

Historic Weather in Vestby — Graph

°F

Vestby temperature yesterday

Maximum temperature yesterday: 57 °F (at 12:50 PM)
Minimum temperature yesterday: 46 °F (at 4:20 AM)
Average temperature yesterday: 51 °F

Past Weeks' High & Low Weather Summary

 TemperatureHumidityPressure
High64 °F (May 23, 4:50 PM)100% (May 11, 8:20 PM)30.04 "Hg (May 11, 8:20 PM)
Low34 °F (May 18, 4:50 AM)29% (May 14, 6:50 PM)29.45 "Hg (May 19, 6:50 AM)
Average49 °F73%29.79 "Hg
* Reported May 11 5:20 PM — May 26 5:50 PM, Vestby, Weather by CustomWeather, © 2015

Note: Actual official high and low records may vary slightly from our data, if they occured in-between our weather recording intervals... More about our weather records

Advertising

Vestby weather history for previous 24 hours

 ConditionsComfort  
Time TempWeatherWind HumidityBarometerVisibility
5:50 PM
Tue, May 26
54 °FSunny.13 mph67%29.80 "Hg10 mi
5:20 PM55 °FSunny.13 mph72%29.80 "Hg10 mi
4:50 PM57 °FSunny.9 mph59%29.80 "Hg10 mi
4:20 PM57 °FScattered clouds.9 mph63%29.80 "HgN/A
3:20 PM54 °FRain. Partly sunny.13 mph63%29.80 "HgN/A
2:50 PM59 °FScattered clouds.5 mph55%29.77 "HgN/A
2:20 PM57 °FPassing clouds.6 mph55%29.77 "HgN/A
1:50 PM57 °FPartly sunny.8 mph55%29.77 "HgN/A
1:20 PM54 °FMore clouds than sun.8 mph63%29.77 "HgN/A
12:50 PM54 °FMore clouds than sun.10 mph63%29.77 "HgN/A
12:20 PM52 °FBroken clouds.9 mph67%29.77 "HgN/A
11:50 AM52 °FScattered clouds.12 mph67%29.77 "HgN/A
11:20 AM52 °FPartly sunny.9 mph67%29.80 "HgN/A
10:50 AM52 °FBroken clouds.9 mph72%29.80 "HgN/A
10:20 AM50 °FBroken clouds.5 mph76%29.77 "HgN/A
9:50 AM50 °FPartly sunny.5 mph82%29.77 "HgN/A
9:20 AM48 °FPartly sunny.5 mph87%29.77 "HgN/A
8:50 AM48 °FLight rain. Broken clouds.7 mph82%29.77 "HgN/A
8:20 AM52 °FPassing clouds.7 mph77%29.77 "HgN/A
7:50 AM46 °FSunny.7 mph87%29.77 "Hg10 mi
7:20 AM46 °FPassing clouds.6 mph87%29.77 "HgN/A
6:50 AM46 °FPassing clouds.5 mph93%29.77 "HgN/A
6:20 AM43 °FPassing clouds.2 mph100%29.77 "Hg6 mi
5:20 AM43 °FOvercast.No wind100%29.77 "Hg5 mi
4:50 AM43 °FOvercast.3 mph100%29.77 "HgN/A
4:20 AM43 °FOvercast.1 mph93%29.77 "Hg1 mi
3:50 AM43 °FOvercast.1 mph93%29.77 "Hg4 mi
3:20 AM43 °FOvercast.1 mph100%29.77 "Hg1 mi
2:50 AM43 °FOvercast.1 mph100%29.77 "Hg1 mi
2:20 AM45 °FFog.2 mph93%29.77 "Hg1 mi
1:50 AM45 °FPassing clouds.No wind100%29.77 "Hg4 mi
1:20 AM45 °FFog.2 mph93%29.77 "Hg2 mi
12:50 AM45 °FPassing clouds.2 mph100%29.77 "HgN/A
12:20 AM45 °FPassing clouds.5 mph100%29.77 "HgN/A
11:50 PM
Mon, May 25
46 °FPassing clouds.5 mph93%29.77 "HgN/A
11:20 PM46 °FPassing clouds.6 mph93%29.74 "HgN/A
10:50 PM46 °FSunny.7 mph93%29.77 "Hg10 mi
10:20 PM48 °FSunny.5 mph87%29.77 "Hg10 mi
9:50 PM50 °FSunny.3 mph82%29.74 "Hg10 mi
9:20 PM52 °FSunny.3 mph82%29.74 "Hg10 mi
8:50 PM52 °FPassing clouds.5 mph82%29.74 "HgN/A
8:20 PM52 °FSunny.8 mph77%29.74 "Hg10 mi
7:20 PM52 °FSunny.7 mph72%29.71 "Hg10 mi
Weather by CustomWeather, © 2015

See weather overviewHow to use our weather pages